This demonstration page uses our WeatherBlox Daily Observations layout. Learn more.

Left ArrowRight Arrow

Hourly Observations for February 18, 2017

Temp ( °F °C ) Dew Point ( °F °C ) Humidity (%) Winds ( mph kmh ) Pressure ( in mb ) Visibility ( mi km ) Precip ( " mm )
12:53 am 00:53 Clear 51 10.6 28 -2.2 41 41 WSW 9 15 29.67 1005 10 16 0.00 0.00
1:53 am 01:53 Clear 49 9.4 29 -1.7 46 46 W 5 7 29.68 1005 10 16 0.00 0.00
2:53 am 02:53 Clear 49 9.4 30 -1.1 48 48 Calm 29.67 1005 10 16 0.00 0.00
3:53 am 03:53 Clear 47 8.3 30 -1.1 52 52 NW 5 7 29.70 1006 10 16 0.00 0.00
4:53 am 04:53 Clear 48 8.9 30 -1.1 50 50 Calm 29.69 1006 10 16 0.00 0.00
5:53 am 05:53 Clear 43 6.1 30 -1.1 60 60 N 6 9 29.70 1006 10 16 0.00 0.00
6:53 am 06:53 Clear 42 5.6 30 -1.1 62 62 Calm 29.73 1007 10 16 0.00 0.00
7:53 am 07:53 Sunny 42 5.6 30 -1.1 62 62 Calm 29.74 1007 10 16 0.00 0.00
8:53 am 08:53 Sunny 53 11.7 35 1.7 51 51 ESE 3 6 29.73 1007 10 16 0.00 0.00
9:53 am 09:53 Sunny 60 15.6 35 1.7 39 39 SW 9 15 29.76 1008 10 16 0.00 0.00
10:53 am 10:53 Sunny 65 18.3 35 1.7 33 33 SSW 5 7 29.75 1008 10 16 0.00 0.00
11:53 am 11:53 Sunny 69 20.6 33 0.6 26 26 SSE 3 6 29.72 1007 10 16 0.00 0.00
12:53 pm 12:53 Sunny 72 22.2 34 1.1 25 25 SW 9 15 29.70 1006 10 16 0.00 0.00
1:53 pm 13:53 Sunny 74 23.3 34 1.1 23 23 S 10 17 29.65 1004 10 16 0.00 0.00
2:53 pm 14:53 Sunny 76 24.4 33 0.6 21 21 S 14 22 29.62 1003 10 16 0.00 0.00
3:53 pm 15:53 Sunny 75 23.9 32 0 21 21 SE 10 17 29.60 1002 10 16 0.00 0.00
4:53 pm 16:53 Sunny 74 23.3 32 0 21 21 ESE 10 17 29.60 1002 10 16 0.00 0.00
5:53 pm 17:53 Sunny 73 22.8 32 0 22 22 ESE 13 20 29.58 1002 10 16 0.00 0.00
6:53 pm 18:53 Clear 69 20.6 33 0.6 26 26 E 10 17 29.60 1003 10 16 0.00 0.00
7:53 pm 19:53 Clear 67 19.4 29 -1.7 24 24 SE 12 19 29.62 1003 10 16 0.00 0.00
8:53 pm 20:53 Clear 66 18.9 31 -0.6 27 27 SSE 15 24 29.63 1003 10 16 0.00 0.00
9:53 pm 21:53 Clear 66 18.9 32 0 28 28 SE 13 20 29.64 1004 10 16 0.00 0.00
10:53 pm 22:53 Clear 63 17.2 33 0.6 33 33 ESE 8 13 29.64 1004 10 16 0.00 0.00
11:53 pm 23:53 Clear 58 14.4 34 1.1 41 41 E 6 9 29.62 1003 10 16 0.00 0.00

Powered by AerisWeather